When you browse on this site, cookies collect data to enhance your experience and personalize the content and advertising you see.
Visit our Privacy Policy to learn more. By continuing to use the site, you agree to this use of cookies and data.
  • Em Portugal
  • Lista de países
  • Para 7 dias
  • Temperatura da água
  • Mapas de satélite
  • Mapa do tempo
  • Widgets de tempo
  • user-avatar
    Iniciar Sessão

    Previsão horária em Krest

    Hoje, 20 Julho, Sábado

    Tempo Temperatura Precipitação Vento Pressão Humidade
    00:00 +14°C° 0.2 mm 3 m/s 736 mmHg 98%
    01:00 +14°C° 0.2 mm 3 m/s 736 mmHg 98%
    02:00 +14°C° 0.2 mm 3 m/s 737 mmHg 98%
    03:00 +14°C° 0.2 mm 3 m/s 737 mmHg 98%
    04:00 +14°C° 0.2 mm 3 m/s 737 mmHg 98%
    05:00 +14°C° 0.2 mm 3 m/s 738 mmHg 98%
    06:00 +14°C° 0.1 mm 3 m/s 738 mmHg 98%
    07:00 +14°C° 0.1 mm 3 m/s 738 mmHg 97%
    08:00 +14°C° 0.1 mm 3 m/s 738 mmHg 97%
    09:00 +16°C° 0.2 mm 3 m/s 739 mmHg 96%
    10:00 +16°C° 0.2 mm 3 m/s 739 mmHg 95%
    11:00 +17°C° 0.2 mm 3 m/s 739 mmHg 94%
    12:00 +18°C° 0.8 mm 3 m/s 739 mmHg 92%
    13:00 +18°C° 0.8 mm 3 m/s 739 mmHg 89%
    14:00 +19°C° 0.8 mm 4 m/s 740 mmHg 87%
    15:00 +20°C° 0.5 mm 3 m/s 740 mmHg 86%
    16:00 +20°C° 0.5 mm 3 m/s 740 mmHg 84%
    17:00 +20°C° 0.5 mm 3 m/s 740 mmHg 82%
    18:00 +19°C° 0.1 mm 2 m/s 740 mmHg 85%
    19:00 +17°C° 0.1 mm 2 m/s 740 mmHg 88%
    20:00 +16°C° 0.1 mm 1 m/s 741 mmHg 90%
    21:00 +15°C° 0 mm 1 m/s 741 mmHg 92%
    22:00 +14°C° 0 mm 1 m/s 741 mmHg 94%
    23:00 +13°C° 0 mm 1 m/s 741 mmHg 95%

    Amanhã, 21 Julho, Domingo

    Tempo Temperatura Precipitação Vento Pressão Humidade
    00:00 +13°C° 0 mm 1 m/s 741 mmHg 96%
    01:00 +13°C° 0 mm 1 m/s 742 mmHg 97%
    02:00 +13°C° 0 mm 1 m/s 742 mmHg 97%
    03:00 +13°C° 0 mm 1 m/s 742 mmHg 98%
    04:00 +13°C° 0 mm 1 m/s 742 mmHg 98%
    05:00 +13°C° 0 mm 1 m/s 742 mmHg 98%
    06:00 +15°C° 0 mm 1 m/s 742 mmHg 93%
    07:00 +16°C° 0 mm 1 m/s 742 mmHg 87%
    08:00 +19°C° 0 mm 1 m/s 743 mmHg 82%
    09:00 +20°C° 0.3 mm 1 m/s 743 mmHg 80%
    10:00 +21°C° 0.3 mm 1 m/s 743 mmHg 78%
    11:00 +21°C° 0.3 mm 2 m/s 743 mmHg 77%
    12:00 +22°C° 1 mm 1 m/s 742 mmHg 77%
    13:00 +22°C° 1 mm 1 m/s 742 mmHg 78%
    14:00 +22°C° 1 mm 1 m/s 742 mmHg 79%
    15:00 +22°C° 0.9 mm 1 m/s 742 mmHg 81%
    16:00 +22°C° 0.9 mm 1 m/s 742 mmHg 82%
    17:00 +22°C° 0.9 mm 1 m/s 742 mmHg 84%
    18:00 +20°C° 0.1 mm 1 m/s 742 mmHg 87%
    19:00 +19°C° 0.1 mm 1 m/s 742 mmHg 89%
    20:00 +16°C° 0.1 mm 0 m/s 742 mmHg 92%
    21:00 +15°C° 0 mm 0 m/s 742 mmHg 92%
    22:00 +14°C° 0 mm 0 m/s 742 mmHg 92%
    23:00 +13°C° 0 mm 0 m/s 742 mmHg 93%

    Depois de amanhã, 22 Julho, Segunda-feira

    Tempo Temperatura Precipitação Vento Pressão Humidade
    00:00 +13°C° 0 mm 0 m/s 742 mmHg 93%
    01:00 +12°C° 0 mm 0 m/s 741 mmHg 93%
    02:00 +12°C° 0 mm 0 m/s 741 mmHg 94%
    03:00 +12°C° 0 mm 0 m/s 741 mmHg 94%
    04:00 +14°C° 0 mm 1 m/s 741 mmHg 94%
    05:00 +14°C° 0 mm 1 m/s 741 mmHg 94%
    06:00 +16°C° 0 mm 1 m/s 741 mmHg 89%
    07:00 +18°C° 0 mm 1 m/s 741 mmHg 84%
    08:00 +20°C° 0 mm 1 m/s 741 mmHg 80%
    09:00 +22°C° 0 mm 1 m/s 741 mmHg 71%
    10:00 +24°C° 0 mm 1 m/s 741 mmHg 62%
    11:00 +25°C° 0 mm 1 m/s 741 mmHg 54%
    12:00 +26°C° 0 mm 1 m/s 741 mmHg 51%
    13:00 +26°C° 0 mm 1 m/s 740 mmHg 49%
    14:00 +27°C° 0 mm 1 m/s 740 mmHg 46%
    15:00 +26°C° 0 mm 1 m/s 740 mmHg 51%
    16:00 +25°C° 0 mm 1 m/s 740 mmHg 56%
    17:00 +25°C° 0 mm 2 m/s 740 mmHg 61%
    18:00 +23°C° 0 mm 2 m/s 740 mmHg 68%
    19:00 +20°C° 0 mm 2 m/s 740 mmHg 74%
    20:00 +18°C° 0 mm 2 m/s 740 mmHg 81%
    21:00 +18°C° 0 mm 2 m/s 739 mmHg 81%
    22:00 +17°C° 0 mm 2 m/s 739 mmHg 81%
    23:00 +16°C° 0 mm 2 m/s 739 mmHg 81%

    23 Julho, Terça-feira

    Tempo Temperatura Precipitação Vento Pressão Humidade
    00:00 +15°C° 0 mm 2 m/s 739 mmHg 81%
    01:00 +15°C° 0 mm 2 m/s 739 mmHg 81%
    02:00 +14°C° 0 mm 2 m/s 739 mmHg 81%
    03:00 +14°C° 0 mm 2 m/s 739 mmHg 81%
    04:00 +14°C° 0 mm 2 m/s 740 mmHg 81%
    05:00 +14°C° 0 mm 2 m/s 740 mmHg 81%
    06:00 +16°C° 0 mm 2 m/s 740 mmHg 76%
    07:00 +18°C° 0 mm 2 m/s 740 mmHg 71%
    08:00 +20°C° 0 mm 2 m/s 740 mmHg 66%
    09:00 +21°C° 0 mm 2 m/s 740 mmHg 60%
    10:00 +24°C° 0 mm 2 m/s 740 mmHg 55%
    11:00 +25°C° 0 mm 3 m/s 740 mmHg 50%
    12:00 +25°C° 0 mm 3 m/s 740 mmHg 51%
    13:00 +25°C° 0 mm 3 m/s 740 mmHg 52%
    14:00 +25°C° 0 mm 3 m/s 740 mmHg 53%
    15:00 +25°C° 0 mm 3 m/s 740 mmHg 54%
    16:00 +25°C° 0 mm 3 m/s 740 mmHg 54%
    17:00 +24°C° 0 mm 3 m/s 740 mmHg 55%
    18:00 +21°C° 0 mm 3 m/s 740 mmHg 61%
    19:00 +19°C° 0 mm 3 m/s 740 mmHg 67%
    20:00 +17°C° 0 mm 2 m/s 740 mmHg 74%
    21:00 +16°C° 0 mm 2 m/s 741 mmHg 76%
    22:00 +15°C° 0 mm 2 m/s 741 mmHg 77%
    23:00 +14°C° 0 mm 2 m/s 741 mmHg 79%

    24 Julho, Quarta-feira

    Tempo Temperatura Precipitação Vento Pressão Humidade
    00:00 +14°C° 0 mm 2 m/s 741 mmHg 80%
    01:00 +14°C° 0 mm 2 m/s 741 mmHg 81%
    02:00 +14°C° 0 mm 2 m/s 741 mmHg 82%
    03:00 +13°C° 0 mm 2 m/s 741 mmHg 81%
    04:00 +13°C° 0 mm 2 m/s 741 mmHg 80%
    05:00 +13°C° 0 mm 2 m/s 741 mmHg 79%
    06:00 +15°C° 0 mm 2 m/s 742 mmHg 72%
    07:00 +17°C° 0 mm 3 m/s 742 mmHg 65%
    08:00 +19°C° 0 mm 3 m/s 742 mmHg 58%
    09:00 +20°C° 0 mm 3 m/s 742 mmHg 55%
    10:00 +21°C° 0 mm 3 m/s 742 mmHg 51%
    11:00 +22°C° 0 mm 3 m/s 742 mmHg 47%
    12:00 +24°C° 0 mm 3 m/s 742 mmHg 47%
    13:00 +24°C° 0 mm 3 m/s 742 mmHg 47%
    14:00 +25°C° 0 mm 4 m/s 742 mmHg 47%
    15:00 +25°C° 0 mm 4 m/s 742 mmHg 48%
    16:00 +24°C° 0 mm 3 m/s 742 mmHg 50%
    17:00 +24°C° 0 mm 3 m/s 742 mmHg 51%
    18:00 +21°C° 0 mm 3 m/s 742 mmHg 59%
    19:00 +20°C° 0 mm 3 m/s 742 mmHg 68%
    20:00 +18°C° 0 mm 2 m/s 742 mmHg 76%
    21:00 +17°C° 0 mm 2 m/s 743 mmHg 78%
    22:00 +16°C° 0 mm 2 m/s 743 mmHg 79%
    23:00 +15°C° 0 mm 2 m/s 743 mmHg 81%

    25 Julho, Quinta-feira

    Tempo Temperatura Precipitação Vento Pressão Humidade
    00:00 +14°C° 0 mm 2 m/s 743 mmHg 82%
    01:00 +14°C° 0 mm 2 m/s 743 mmHg 82%
    02:00 +14°C° 0 mm 2 m/s 744 mmHg 83%
    03:00 +14°C° 0 mm 2 m/s 744 mmHg 83%
    04:00 +14°C° 0 mm 2 m/s 744 mmHg 82%
    05:00 +14°C° 0 mm 2 m/s 744 mmHg 82%
    06:00 +16°C° 0 mm 2 m/s 744 mmHg 76%
    07:00 +18°C° 0 mm 2 m/s 744 mmHg 70%
    08:00 +20°C° 0 mm 2 m/s 744 mmHg 63%
    09:00 +22°C° 0 mm 3 m/s 744 mmHg 58%
    10:00 +24°C° 0 mm 3 m/s 744 mmHg 54%
    11:00 +25°C° 0 mm 4 m/s 744 mmHg 49%
    12:00 +26°C° 0 mm 4 m/s 744 mmHg 49%
    13:00 +26°C° 0 mm 4 m/s 744 mmHg 49%
    14:00 +26°C° 0 mm 4 m/s 744 mmHg 50%
    15:00 +25°C° 0.1 mm 4 m/s 744 mmHg 54%
    16:00 +25°C° 0.1 mm 4 m/s 744 mmHg 58%
    17:00 +23°C° 0.1 mm 4 m/s 743 mmHg 62%
    18:00 +21°C° 0 mm 3 m/s 743 mmHg 70%
    19:00 +19°C° 0 mm 2 m/s 744 mmHg 78%
    20:00 +18°C° 0 mm 2 m/s 744 mmHg 85%
    21:00 +17°C° 0 mm 2 m/s 744 mmHg 88%
    22:00 +18°C° 0 mm 1 m/s 744 mmHg 90%
    23:00 +16°C° 0 mm 1 m/s 744 mmHg 93%
    Mostrar mais